Wind_Speed
4 4 5 7 8 9 7 5 6 6 6 7 5 4 3 4 7 7 10 11 12 15 18 18 18 21 20 17 15 13 11 12 14 13 11 8 8 8 9 9 9 9 8
5 4 5 4 6 7 7 7 8 7 5 2 5 6 5 1 8 10 9 8 10 14 17 18 17 21 21 19 18 12 9 10 12 14 14 14 12 10 9 8 9 8 10
7 5 5 5 5 5 5 6 2 3 5 8 5 6 9 10 2 3 3 7 9 12 14 15 16 18 20 21 25 18 13 12 13 15 15 16 15 14 13 12 9 8 9
10 8 9 8 8 8 6 9 4 3 10 8 7 3 5 9 11 6 4 8 8 8 10 11 11 14 19 21 22 22 17 14 14 16 18 18 17 16 15 14 13 9 9
13 10 10 12 11 12 10 7 8 5 7 5 10 6 10 9 14 7 4 5 8 8 10 9 11 11 15 16 18 16 15 14 14 14 15 15 16 17 16 14 13 12 11
13 14 12 14 16 13 14 13 8 20 11 6 9 5 14 15 1 10 11 12 7 8 11 9 11 8 9 11 13 14 13 12 13 14 15 14 13 15 17 17 15 14 14
14 16 17 19 23 14 12 7 14 14 12 10 7 15 15 14 12 9 19 9 3 4 6 10 10 9 6 8 9 10 10 10 13 14 16 19 18 15 15 16 17 16 15
12 15 17 22 17 14 5 17 15 13 6 9 14 15 14 10 25 20 10 20 7 5 5 7 6 5 8 4 7 10 12 12 13 14 16 18 18 18 16 16 15 15 15
13 14 15 18 19 14 16 16 7 12 8 15 10 11 15 9 3 10 14 1 11 4 5 4 4 6 6 5 6 8 10 11 14 15 15 16 17 19 19 17 17 17 18
13 13 15 16 19 17 18 11 21 18 12 15 16 18 17 15 13 9 10 2 7 6 4 5 8 10 11 8 11 10 8 9 11 14 15 15 17 19 21 20 19 17 17
14 15 16 16 19 20 17 17 19 19 18 17 21 19 17 18 17 15 9 11 8 11 8 8 5 13 10 13 9 9 10 8 10 13 15 16 18 19 20 22 20 20 20
15 15 18 17 19 19 16 14 19 19 24 20 19 21 20 19 19 17 16 10 12 8 7 7 9 10 11 9 11 13 13 14 15 13 13 15 17 19 20 21 22 22 21
16 17 21 19 20 22 21 17 19 20 22 21 21 21 21 17 21 19 16 12 9 9 14 14 11 9 11 12 13 13 14 15 17 20 19 18 17 17 18 20 21 20 20
21 20 23 22 22 25 20 26 22 21 23 24 24 25 23 22 21 27 13 17 11 16 14 20 14 17 17 15 16 15 16 16 18 19 20 19 18 17 17 18 19 19 21
26 24 21 19 23 27 29 26 24 26 27 26 26 27 28 25 23 27 24 13 12 16 19 20 26 32 28 14 26 16 22 23 21 21 22 22 22 20 20 20 20 20 22
29 25 15 27 17 14 23 20 28 26 26 26 27 26 29 27 27 25 12 16 13 20 20 21 28 30 32 27 15 26 29 26 25 22 24 24 23 24 23 24 25 24 24
30 31 24 24 24 24 24 26 25 23 25 25 25 28 31 29 30 27 21 19 21 24 23 19 24 34 36 34 31 32 31 27 27 24 24 24 27 28 28 29 29 29 28
32 31 31 27 28 28 26 25 24 23 25 25 25 29 33 38 16 21 22 24 27 28 26 25 28 29 30 32 31 33 32 26 25 23 23 27 30 33 34 30 29 30 31
38 34 32 32 27 25 25 21 19 23 27 29 29 31 34 36 35 28 30 30 30 28 29 30 28 28 27 27 31 29 27 25 23 29 31 36 37 39 38 35 33 31 30
38 34 30 27 26 27 21 22 25 28 28 30 39 36 38 38 37 39 36 35 36 33 35 33 31 30 30 31 31 31 30 29 31 33 35 38 40 40 37 38 36 34 32
36 34 30 30 30 32 30 29 29 33 33 35 35 40 44 42 42 42 41 43 41 39 39 34 34 33 33 34 35 34 34 35 36 39 40 41 45 43 40 38 36 38 37
38 35 34 37 34 33 34 39 36 38 38 39 39 38 42 50 47 48 47 47 47 44 42 38 38 38 37 39 39 39 40 41 39 42 46 41 49 49 47 41 39 38 38
28 28 21 18 25 26 30 33 35 36 36 31 39 45 44 48 55 51 50 49 51 49 46 44 42 41 39 43 42 43 46 48 47 47 51 50 49 52 54 50 41 37 36
23 17 24 27 21 25 26 31 36 41 35 32 35 38 40 48 55 59 48 54 51 47 44 44 43 41 45 46 47 50 49 52 52 52 54 54 53 50 52 48 49 46 39
24 22 28 26 24 19 17 22 25 27 27 29 29 22 32 46 49 54 55 68 60 42 44 43 45 47 48 50 52 55 55 58 55 53 53 52 49 48 49 47 47 48 46
29 26 24 22 21 20 22 24 26 27 27 28 29 29 28 25 30 36 39 40 36 41 40 47 53 55 55 55 55 55 54 54 53 51 50 49 48 51 49 48 48 48 47
Wind_Direction
314 344 3 22 3 10 20 357 353 4 19 69 353 3 350 13 68 64 35 20 22 26 21 16 20 16 13 11 7 5 11 29 37 37 30 22 9 356 346 340 337 347 353
286 294 315 349 356 351 352 325 358 349 337 193 246 280 278 63 8 28 30 0 7 20 17 17 18 15 19 12 358 347 26 45 41 39 34 34 28 11 358 351 352 347 350
303 306 305 318 315 317 305 289 316 273 311 265 232 293 303 293 202 308 1 358 349 15 13 14 13 13 20 18 22 36 51 54 43 29 23 18 13 10 11 1 349 341 347
307 320 323 312 303 289 268 271 203 209 274 288 316 316 194 270 280 286 345 343 325 349 358 356 2 8 18 22 33 45 50 50 38 34 33 31 27 20 17 7 2 349 335
300 305 305 294 290 288 298 297 306 292 276 255 270 281 269 257 282 277 269 255 296 306 321 333 337 356 17 25 31 36 38 31 30 21 17 16 21 24 22 18 8 3 355
295 298 301 294 278 287 312 329 316 294 256 245 270 272 264 272 304 210 269 243 241 308 316 316 304 344 10 15 32 37 35 27 23 18 11 6 5 8 11 11 11 8 1
297 296 287 282 302 313 318 244 291 264 268 272 287 282 305 257 244 235 266 233 222 246 308 294 303 306 1 21 7 16 21 22 24 21 24 28 25 17 10 8 5 359 352
289 293 279 283 280 293 117 266 278 264 261 264 257 285 300 231 311 244 191 195 161 213 231 234 247 295 305 333 1 358 5 10 13 17 17 14 15 15 12 12 8 4 358
285 283 281 283 288 282 270 275 312 285 282 269 266 270 286 294 288 330 338 327 272 225 197 231 234 267 280 298 316 344 356 5 4 3 1 0 5 6 1 359 357 360 4
285 284 284 285 288 289 287 292 298 295 284 284 282 284 282 273 263 269 274 5 243 248 279 279 302 308 297 281 283 297 333 341 345 350 350 353 356 356 356 359 356 355 355
286 288 294 298 299 304 299 294 287 294 293 278 281 281 269 303 284 283 275 280 287 265 297 311 318 314 312 324 296 273 291 298 318 339 344 352 354 348 347 346 349 349 352
281 292 295 301 300 293 284 288 275 289 279 279 279 280 283 278 280 286 285 265 269 242 261 276 295 294 305 312 302 308 309 307 314 322 333 350 347 344 339 339 340 343 343
284 294 288 297 292 286 285 275 277 273 276 277 277 275 275 271 283 274 262 253 267 277 280 292 261 266 271 283 290 293 305 309 312 316 326 333 337 337 336 335 337 339 339
276 277 293 288 287 293 293 295 293 290 280 278 273 273 270 269 268 262 251 263 262 270 260 268 181 239 262 262 269 285 291 296 304 312 319 324 327 330 330 329 329 327 325
274 276 282 297 296 292 297 301 291 282 280 281 276 269 262 259 260 270 287 239 249 275 281 276 286 279 267 267 265 262 295 298 302 308 314 316 319 319 318 316 316 317 315
269 272 256 279 281 276 288 272 282 284 284 279 279 268 262 254 253 253 285 248 267 269 272 288 298 297 304 289 291 292 289 288 293 300 307 310 313 312 315 314 311 308 305
260 266 262 267 269 273 273 271 278 282 281 277 278 269 263 257 252 257 257 272 271 274 277 285 293 302 304 310 308 311 307 291 281 293 296 303 306 308 308 308 307 306 306
241 248 253 246 251 259 261 267 268 274 271 271 269 265 265 269 251 255 257 262 268 273 281 282 287 287 290 299 305 308 306 294 277 271 288 296 302 303 302 303 301 300 298
240 238 245 252 258 257 262 260 275 273 270 276 272 259 258 265 274 268 264 264 272 274 276 277 280 278 274 279 290 300 308 291 283 267 277 293 298 300 304 305 304 304 302
246 244 247 256 257 262 261 275 270 275 288 272 261 261 257 260 266 265 264 265 270 269 274 275 270 268 278 284 287 292 292 288 283 283 282 288 291 296 300 302 302 300 300
241 245 244 244 246 252 258 260 264 269 275 269 271 258 255 253 255 259 261 262 263 265 269 272 275 275 276 278 280 279 281 281 282 281 281 286 289 292 297 298 297 298 296
240 245 245 233 250 263 259 258 262 258 269 273 273 267 266 255 253 254 256 259 267 267 268 267 271 273 274 276 278 280 281 281 281 283 285 286 288 294 296 296 294 294 294
306 269 295 290 264 269 260 254 267 265 263 272 283 272 272 262 254 254 258 263 266 271 266 272 272 274 277 275 278 283 286 286 288 290 290 292 292 294 295 294 297 295 293
315 279 281 279 275 280 266 260 262 261 265 269 297 264 264 269 265 254 255 257 260 263 264 268 272 279 281 282 282 282 283 281 282 285 286 286 287 291 292 295 294 294 292
305 279 275 271 269 278 280 261 259 261 271 284 290 273 272 273 268 262 255 262 260 259 264 274 282 282 281 283 284 283 284 282 282 283 282 281 283 281 281 283 284 286 289
295 278 270 285 282 280 273 265 264 269 270 277 282 283 283 296 261 266 264 256 271 273 270 280 283 285 284 283 282 283 284 285 287 287 284 283 283 283 283 282 281 282 286
Height
5948 5948 5948 5946 5943 5942 5942 5940 5941 5937 5933 5930 5935 5940 5942 5943 5937 5938 5938 5941 5940 5936 5935 5935 5933 5931 5928 5926 5925 5923 5921 5921 5920 5919 5918 5917 5917 5917 5917 5916 5915 5913 5913
5947 5949 5949 5948 5947 5944 5941 5940 5942 5942 5941 5936 5935 5939 5943 5935 5934 5938 5940 5943 5939 5936 5936 5935 5934 5931 5929 5926 5923 5921 5921 5921 5921 5920 5920 5918 5917 5916 5916 5915 5914 5913 5912
5947 5949 5949 5948 5947 5945 5943 5940 5943 5945 5942 5942 5940 5941 5944 5941 5936 5936 5939 5940 5939 5938 5938 5936 5934 5932 5930 5927 5924 5921 5921 5922 5922 5921 5920 5918 5917 5916 5914 5913 5913 5912 5912
5946 5947 5947 5947 5946 5944 5942 5937 5944 5946 5942 5938 5944 5943 5939 5941 5937 5936 5932 5935 5939 5938 5938 5938 5935 5934 5933 5929 5925 5924 5924 5923 5923 5923 5921 5919 5917 5916 5914 5913 5912 5911 5911
5945 5945 5944 5942 5943 5942 5945 5943 5941 5940 5939 5937 5938 5939 5935 5930 5935 5934 5929 5936 5936 5937 5937 5937 5936 5935 5932 5930 5928 5926 5925 5924 5923 5923 5922 5920 5918 5916 5914 5912 5910 5910 5909
5943 5942 5941 5938 5934 5937 5943 5946 5944 5942 5941 5934 5932 5935 5933 5929 5926 5892 5923 5929 5932 5932 5935 5934 5934 5933 5931 5932 5930 5928 5926 5924 5924 5923 5922 5921 5919 5918 5915 5913 5912 5911 5910
5942 5940 5938 5934 5935 5940 5938 5941 5938 5936 5937 5930 5931 5929 5929 5933 5927 5928 5931 5920 5921 5926 5928 5931 5929 5929 5930 5930 5930 5929 5927 5926 5925 5924 5923 5921 5919 5918 5917 5916 5914 5911 5910
5939 5937 5936 5930 5935 5936 5928 5930 5934 5934 5931 5930 5927 5929 5928 5928 5923 5923 5918 5874 5915 5921 5925 5928 5928 5928 5928 5929 5929 5929 5927 5927 5925 5924 5923 5921 5920 5918 5917 5916 5914 5912 5910
5935 5934 5932 5931 5929 5931 5931 5928 5926 5931 5925 5924 5920 5924 5923 5925 5927 5913 5915 5913 5924 5920 5923 5926 5925 5927 5927 5927 5929 5928 5928 5926 5925 5924 5922 5921 5919 5918 5917 5916 5915 5913 5911
5933 5931 5928 5930 5930 5931 5930 5930 5928 5927 5924 5921 5923 5922 5919 5922 5922 5922 5924 5923 5923 5922 5926 5928 5926 5926 5925 5925 5924 5925 5924 5924 5924 5922 5921 5920 5918 5916 5915 5914 5913 5912 5911
5930 5928 5927 5927 5928 5930 5928 5924 5924 5921 5919 5922 5919 5922 5918 5909 5915 5915 5919 5918 5919 5924 5923 5926 5926 5925 5926 5926 5925 5923 5922 5921 5920 5919 5919 5918 5918 5916 5914 5913 5912 5910 5909
5926 5926 5923 5923 5923 5922 5923 5923 5919 5922 5921 5919 5918 5915 5913 5914 5913 5914 5915 5920 5920 5920 5918 5918 5920 5924 5923 5924 5923 5922 5921 5919 5918 5916 5916 5916 5916 5914 5912 5910 5910 5909 5907
5921 5919 5917 5920 5915 5914 5916 5921 5922 5920 5920 5915 5913 5912 5908 5910 5910 5909 5908 5911 5914 5913 5910 5914 5912 5912 5916 5917 5917 5917 5917 5916 5914 5914 5914 5913 5911 5911 5909 5908 5907 5906 5905
5912 5912 5911 5913 5911 5909 5910 5910 5914 5913 5915 5912 5909 5906 5905 5905 5906 5895 5898 5908 5907 5907 5909 5901 5871 5902 5904 5910 5911 5909 5911 5912 5910 5909 5910 5910 5909 5908 5906 5905 5904 5902 5901
5903 5907 5903 5909 5910 5903 5903 5904 5904 5907 5907 5905 5904 5902 5901 5902 5902 5891 5888 5903 5904 5902 5905 5903 5896 5887 5892 5896 5901 5901 5906 5906 5907 5906 5906 5906 5906 5904 5902 5901 5900 5898 5897
5895 5897 5901 5902 5902 5901 5898 5903 5901 5900 5899 5897 5898 5900 5896 5897 5897 5896 5872 5900 5898 5902 5901 5894 5891 5896 5896 5898 5900 5895 5899 5900 5902 5900 5901 5901 5901 5900 5898 5896 5895 5894 5892
5889 5886 5890 5890 5890 5890 5893 5894 5891 5890 5890 5890 5893 5893 5890 5891 5893 5891 5889 5892 5896 5897 5896 5894 5897 5887 5886 5887 5889 5890 5890 5892 5894 5892 5895 5896 5895 5894 5892 5891 5889 5888 5887
5880 5877 5878 5882 5881 5882 5884 5883 5880 5880 5882 5883 5884 5885 5885 5888 5881 5882 5884 5886 5887 5887 5885 5889 5890 5889 5885 5882 5883 5884 5882 5882 5885 5886 5888 5887 5888 5887 5886 5885 5882 5880 5879
5867 5868 5869 5869 5874 5875 5873 5872 5875 5874 5874 5874 5876 5876 5876 5878 5879 5879 5879 5881 5879 5879 5880 5883 5883 5881 5882 5881 5880 5877 5875 5876 5878 5881 5884 5883 5881 5879 5878 5875 5874 5872 5871
5861 5860 5860 5863 5864 5863 5862 5860 5864 5865 5865 5865 5867 5870 5870 5870 5873 5871 5874 5873 5873 5875 5875 5876 5875 5874 5871 5869 5870 5870 5871 5871 5871 5872 5875 5875 5872 5870 5869 5866 5866 5864 5862
5850 5850 5850 5854 5854 5855 5857 5855 5857 5856 5856 5857 5857 5858 5860 5862 5861 5864 5865 5864 5865 5866 5868 5868 5868 5867 5866 5865 5864 5866 5867 5867 5866 5863 5863 5865 5862 5864 5862 5860 5858 5854 5852
5838 5839 5837 5838 5845 5851 5847 5847 5847 5847 5847 5846 5846 5848 5849 5849 5850 5851 5855 5856 5856 5857 5857 5856 5857 5858 5858 5857 5856 5856 5855 5855 5858 5854 5848 5854 5848 5848 5852 5853 5850 5847 5844
5835 5833 5835 5835 5838 5839 5837 5836 5838 5839 5839 5838 5837 5835 5834 5837 5839 5841 5844 5847 5846 5845 5846 5847 5849 5850 5850 5847 5845 5844 5843 5842 5843 5845 5840 5841 5839 5838 5832 5833 5837 5837 5835
5832 5832 5832 5833 5830 5828 5826 5826 5827 5830 5830 5830 5827 5824 5826 5826 5826 5829 5832 5834 5834 5834 5834 5835 5838 5838 5836 5835 5833 5833 5834 5831 5832 5833 5829 5827 5828 5827 5823 5821 5818 5822 5824
5823 5825 5827 5823 5821 5820 5818 5818 5820 5820 5819 5820 5819 5815 5816 5816 5814 5817 5822 5821 5824 5823 5824 5824 5825 5825 5824 5823 5822 5820 5821 5818 5821 5821 5819 5816 5816 5815 5815 5814 5811 5809 5809
5819 5818 5816 5815 5813 5814 5813 5813 5813 5813 5812 5810 5809 5808 5807 5804 5805 5809 5809 5810 5811 5811 5811 5810 5810 5810 5809 5809 5809 5807 5806 5805 5805 5805 5804 5803 5804 5801 5802 5801 5800 5801 5799